[[{"header":{"parameterUnit":"m.s-1","parameterCategory":1,"la1":30.2992,"la2":30.254,"lo1":-89.0895,"lo2":-89.0443,"dy":0.0025,"dx":0.0025,"nx":19,"ny":19,"refTime":"2026-03-16T09:00:00:Z","depth":0,"parameterNumber":2,"parameterNumberName":"U-component_of_WINDS"},"data":[0,0,0,-1.5891,-1.5893,-1.5975,-1.5975,-1.6082,-1.6083,0,0,0,0,0,0,0,0,0,0,0,-1.5871,-1.5871,-1.5891,-1.5893,-1.5975,-1.5975,-1.6082,-1.6083,0,0,0,0,0,0,0,0,0,0,0,-1.587,-1.5871,-1.5872,-1.5894,-1.5975,-1.5975,-1.6082,-1.6019,0,0,0,0,0,0,0,0,0,0,-1.5939,-1.5924,-1.5871,-1.5872,-1.5894,-1.5975,-1.5975,-1.6016,-1.6023,-1.6047,0,-1.6071,0,-1.6079,-1.6091,-1.6091,0,0,0,-1.5891,-1.5918,-1.5937,-1.5872,-1.5895,-1.5974,-1.5937,-1.602,-1.6028,-1.6057,-1.6072,-1.6076,-1.6081,-1.6092,-1.6092,-1.6243,-1.6244,0,0,-1.5886,-1.5887,-1.5931,-1.5942,-1.5931,-1.5935,-1.594,-1.6025,-1.6041,-1.6073,-1.6079,-1.6083,-1.6092,-1.6093,-1.6242,-1.6243,0,0,0,-1.5875,-1.5884,-1.5901,-1.5938,-1.5952,-1.5937,-1.5943,-1.6038,-1.6043,-1.608,-1.6084,-1.6093,-1.6094,-1.6241,-1.6243,-1.6284,0,0,0,-1.5872,-1.5877,-1.5899,-1.59,-1.5951,-1.5996,-1.5954,-1.6037,-1.6047,-1.6083,-1.6093,-1.6096,-1.6241,-1.6242,-1.6281,-1.6304,0,0,0,-1.5864,-1.5876,-1.5889,-1.59,-1.5935,-1.5995,-1.6005,-1.6039,-1.6049,-1.6091,-1.6096,-1.624,-1.6242,-1.6278,-1.6299,-1.6343,0,0,0,-1.5855,-1.5926,-1.589,-1.597,-1.5934,-1.6021,-1.6005,-1.6069,-1.611,-1.6094,-1.6241,-1.6243,-1.6278,-1.6296,-1.634,-1.6379,-1.6396,0,0,-1.5944,-1.5936,-1.5983,-1.5954,-1.6046,-1.6008,-1.6106,-1.6143,-1.6146,-1.621,-1.6214,-1.6282,-1.6299,-1.6342,-1.6491,-1.6504,0,0,0,-1.6011,-1.6045,-1.6069,-1.6109,-1.6139,-1.6165,-1.6187,-1.62,-1.6254,-1.618,-1.631,-1.632,-1.6345,-1.6364,-1.6375,-1.6396,-1.6251,-1.6251,-1.6251,-1.6138,-1.6138,-1.6215,-1.6225,-1.6263,-1.6284,-1.6314,-1.6335,-1.6324,-1.6355,-1.6374,-1.6464,-1.6486,-1.6495,-1.6517,-1.6395,-1.6395,-1.6396,-1.6396,-1.6268,-1.6315,-1.6298,-1.6366,-1.6365,-1.6422,-1.6444,-1.6434,-1.6486,-1.645,-1.6473,-1.6433,-1.6509,-1.6528,-1.6399,-1.6398,-1.6398,-1.6398,-1.6397,-1.635,-1.6373,-1.6388,-1.6443,-1.6486,-1.6493,-1.6543,-1.6541,-1.6538,-1.656,-1.6579,-1.6579,-1.6577,-1.657,-1.657,-1.657,-1.6571,-1.6571,-1.6571,-1.643,-1.6446,-1.6489,-1.6525,-1.6549,-1.658,-1.6601,-1.6624,-1.6649,-1.6643,-1.6643,-1.6628,-1.6517,-1.6489,-1.6576,-1.6575,-1.6574,-1.6574,-1.6574,-1.6561,-1.653,-1.6597,-1.6621,-1.6663,-1.6704,-1.67,-1.6747,-1.6766,-1.679,-1.677,-1.6689,-1.6681,-1.6672,-1.6648,-1.6771,-1.6771,-1.6771,-1.6771,-1.663,-1.6625,-1.6692,-1.673,-1.6767,-1.677,-1.6843,-1.6859,-1.6871,-1.6882,-1.6864,-1.6832,-1.6823,-1.682,-1.6808,-1.6786,-1.6941,-1.6941,-1.6941,-1.6709,-1.6708,-1.6772,-1.6783,-1.6815,-1.6842,-1.6911,-1.6954,-1.6961,-1.6948,-1.689,-1.6883,-1.6832,-1.6816,-1.6802,-1.6783,-1.6743,0,0]},{"header":{"parameterUnit":"m.s-1","parameterCategory":1,"la1":30.2992,"la2":30.254,"lo1":-89.0895,"lo2":-89.0443,"dy":0.0025,"dx":0.0025,"nx":19,"ny":19,"refTime":"2026-03-16T09:00:00:Z","depth":0,"parameterNumber":3,"parameterNumberName":"V-component_of_WINDS"},"data":[0,0,0,-2.9616,-2.9618,-2.9712,-2.9712,-2.9837,-2.9838,0,0,0,0,0,0,0,0,0,0,0,-2.9592,-2.9593,-2.9616,-2.9618,-2.9712,-2.9712,-2.9837,-2.9838,0,0,0,0,0,0,0,0,0,0,0,-2.9592,-2.9593,-2.9594,-2.9619,-2.9712,-2.9712,-2.9836,-2.9764,0,0,0,0,0,0,0,0,0,0,-2.9671,-2.9654,-2.9593,-2.9594,-2.9619,-2.9712,-2.9712,-2.976,-2.9768,-2.9797,0,-2.9824,0,-2.9833,-2.9847,-2.9847,0,0,0,-2.9615,-2.9648,-2.9669,-2.9594,-2.962,-2.9712,-2.9669,-2.9764,-2.9774,-2.9807,-2.9826,-2.9831,-2.9835,-2.9848,-2.9848,-3.0026,-3.0027,0,0,-2.961,-2.9611,-2.9663,-2.9675,-2.9663,-2.9666,-2.9672,-2.977,-2.979,-2.9827,-2.9833,-2.9837,-2.9848,-2.9849,-3.0025,-3.0026,0,0,0,-2.9597,-2.9608,-2.9627,-2.967,-2.9687,-2.9668,-2.9675,-2.9786,-2.9792,-2.9835,-2.9839,-2.9849,-2.9851,-3.0024,-3.0025,-3.0075,0,0,0,-2.9594,-2.96,-2.9625,-2.9627,-2.9685,-2.9738,-2.9689,-2.9785,-2.9796,-2.9838,-2.9849,-2.9852,-3.0023,-3.0025,-3.0071,-3.0098,0,0,0,-2.9585,-2.9599,-2.9614,-2.9627,-2.9667,-2.9736,-2.9748,-2.9787,-2.9799,-2.9847,-2.9852,-3.0022,-3.0024,-3.0068,-3.0093,-3.0144,0,0,0,-2.9575,-2.9658,-2.9615,-2.9709,-2.9666,-2.9767,-2.9747,-2.9822,-2.987,-2.985,-3.0023,-3.0025,-3.0067,-3.0089,-3.0141,-3.0187,-3.0207,0,0,-2.9681,-2.9671,-2.9726,-2.969,-2.9799,-2.9752,-2.9868,-2.991,-2.9913,-2.9988,-2.9992,-3.0073,-3.0092,-3.0143,-3.0319,-3.0335,0,0,0,-2.976,-2.9799,-2.9827,-2.9873,-2.9907,-2.9938,-2.9962,-2.9977,-3.0041,-2.9952,-3.0106,-3.0117,-3.0147,-3.0169,-3.0183,-3.0207,-3.0036,-3.0036,-3.0035,-2.991,-2.991,-3.0,-3.001,-3.0054,-3.0078,-3.0113,-3.0137,-3.0124,-3.016,-3.0182,-3.0289,-3.0315,-3.0325,-3.0351,-3.0207,-3.0208,-3.0208,-3.0208,-3.0063,-3.0118,-3.0097,-3.0177,-3.0175,-3.0242,-3.0267,-3.0255,-3.0316,-3.0273,-3.0299,-3.0251,-3.0342,-3.0364,-3.0212,-3.0211,-3.021,-3.021,-3.021,-3.0161,-3.0187,-3.0204,-3.0268,-3.0318,-3.0325,-3.0384,-3.0381,-3.0377,-3.0403,-3.0425,-3.0424,-3.0421,-3.0414,-3.0415,-3.0415,-3.0415,-3.0416,-3.0416,-3.0255,-3.0273,-3.0323,-3.0365,-3.0393,-3.0429,-3.0453,-3.0479,-3.0508,-3.0501,-3.0501,-3.0482,-3.0352,-3.0318,-3.0422,-3.0421,-3.042,-3.0419,-3.0419,-3.0408,-3.0372,-3.045,-3.0478,-3.0526,-3.0574,-3.0569,-3.0624,-3.0646,-3.0674,-3.0651,-3.0555,-3.0545,-3.0534,-3.0506,-3.0652,-3.0651,-3.0652,-3.0652,-3.0489,-3.0483,-3.0561,-3.0606,-3.0649,-3.0651,-3.0737,-3.0756,-3.0769,-3.0782,-3.0761,-3.0724,-3.0713,-3.0709,-3.0694,-3.0668,-3.0852,-3.0852,-3.0852,-3.0582,-3.058,-3.0655,-3.0668,-3.0705,-3.0736,-3.0816,-3.0867,-3.0875,-3.086,-3.0792,-3.0783,-3.0723,-3.0704,-3.0687,-3.0665,-3.0617,0,0]}]]